Location: Bosmont
(49.7318°N, 3.8587°E)
Time: 21:35:33
(UTC+00:00)

Meteor 1-11 Rocket - Visible Passes

Search period start: 21 February 2024 00:00
Search period end: 02 March 2024 00:00
Orbit: 831 x 915 km, 81.2° (Epoch: 21 February)

Date Brightness Start Highest point End Pass type
(mag) Time Alt. Az. Time Alt. Az. Time Alt. Az.
25 Feb 6.6 22:43:15 10° N 22:43:15 10° N 22:43:21 10° N visible
26 Feb 6.5 22:37:38 12° N 22:37:38 12° N 22:37:58 10° N visible
27 Feb 6.4 22:31:59 13° N 22:31:59 13° N 22:32:34 10° N visible
28 Feb 6.3 22:26:18 14° N 22:26:18 14° N 22:27:11 10° N visible
29 Feb 6.2 22:20:35 16° N 22:20:35 16° N 22:21:48 10° N visible
01 Mar 6.1 20:32:23 11° NNE 20:32:23 11° NNE 20:32:39 10° NNE visible
01 Mar 6.1 22:14:49 18° N 22:14:49 18° N 22:16:25 10° N visible
